sat.trackr.live / text

‹ back to catalog

TIANHUI 2-01A

NORAD 44207 · 2019-024A

PAYLOAD ACTIVE UNKNOWN

§ Identity

Operator
Country
PRC
Launch date
2019-04-29
Launch site
TAISC
Launch vehicle
Mass (kg)
RCS (m²)

External: N2YO · Heavens-Above · Gunter

§ Orbital elements

Epoch: 2026-09-09T12:55:13.854720Z

Period
94.94 min
Inclination
97.4846°
Eccentricity
0.0001500
Mean motion
15.16734980 rev/d
Perigee alt
514.7 km
Apogee alt
516.8 km
Semi-major
6,893.9 km
B*
6.2024e-5
RAAN
255.3689°
Arg perigee
108.2315°
Mean anomaly
251.9081°
Rev number
11,492

§ Raw data

TIANHUI 2-01A1 44207U 19024A   26252.53835480  .00001150  00000+0  62024-4 0  99902 44207  97.4846 255.3689 0001500 108.2315 251.9081 15.16734980114928

JSON: /api/v1/satellites/44207 · /tle

For live sub-satellite position, see the globe view (requires WebGL).

§ Visibility from observer

Set your observer location to see the next 7 days of passes ≥ 10°. The values pass through the URL so the page stays shareable.

No JS? Fill the form by hand. The geolocation button needs JavaScript.